Regional Weather Roundup
Issued by NWS

Home | Current Version | Previous Version | Text Only | Print | Product List | Glossary On
Versions: 1 2 3 4 5 6 7 8 9 10 11 12 13 14 15 16 17 18 19 20 21 22 23 24 25 26 27 28 29 30 31 32 33 34 35 36 37 38 39 40 41 42 43 44 45 46 47 48 49 50
000
ASUS44 KEWX 011211
RWRTX
SOUTH TEXAS REGIONAL WEATHER ROUNDUP
NATIONAL WEATHER SERVICE AUSTIN/SAN ANTONIO TX
700 AM CDT WED JUL 01 2015

NOTE: "FAIR" INDICATED FEW OR NO CLOUDS BELOW 12,000 FEET WITH NO
SIGNIFICANT WEATHER AND/OR OBSTRUCTIONS TO VISIBILITY.

* - THESE STATIONS ARE NOT NWS OR FAA STATIONS...AND ARE NOT SUBJECT
    TO NWS AND FAA QUALITY CONTROL.

TXZ171-172-183>190-011300-
TEXAS HILL COUNTRY AND EDWARDS PLATEAU

CITY           SKY/WX    TMP DP  RH WIND       PRES   REMARKS
JUNCTION       PTCLDY    73  68  84 CALM      30.08R
6HR MIN TEMP:  70; 6HR MAX TEMP:  73;

*LLANO         PTCLDY    72  70  94 CALM      30.09S
BURNET         CLEAR     69  67  93 SW5       30.09R
6HR MIN TEMP:  68; 6HR MAX TEMP:  73;

*HORSESHOE BAY CLEAR     67  67  97 CALM      30.07R
6HR MIN TEMP:  67; 6HR MAX TEMP:  72;

*KERRVILLE     CLOUDY    72  69  92 S8        30.09R
6HR MIN TEMP:  70; 6HR MAX TEMP:  72;

*FREDERICKSBRG CLOUDY    70  67  90 SW9       30.09R
6HR MIN TEMP:  68; 6HR MAX TEMP:  71;

*ROCKSPRINGS   CLOUDY    70  68  94 S8        30.12R FOG
*BOERNE STAGE  CLEAR     68  68 100 CALM      30.08S
*CASTROVILLE   CLEAR     71  70  98 CALM      30.06R
HONDO          CLOUDY    70  69  97 E3        30.07R
6HR MIN TEMP:  68; 6HR MAX TEMP:  72;

*UVALDE        CLOUDY    70  69  98 CALM      30.05S FOG
6HR MIN TEMP:  69; 6HR MAX TEMP:  72;

DEL RIO        CLOUDY    74  70  87 SE9       30.02R
6HR MIN TEMP:  74; 6HR MAX TEMP:  75;

LAUGHLIN AFB   CLOUDY    72  72  99 SE5       30.03R
6HR MIN TEMP:  72; 6HR MAX TEMP:  74;

CARRIZO SPRGS  PTCLDY    70  68  94 CALM      30.01R FOG
$$

TXZ173-191>194-202-209-217>225-228-011300-
CENTRAL AND SOUTH CENTRAL TEXAS

CITY           SKY/WX    TMP DP  RH WIND       PRES   REMARKS
GEORGETOWN     CLEAR     72  72 100 SW3       30.04R
AUSTIN/BERGSTM PTCLDY    67  67 100 CALM      30.04R
6HR MIN TEMP:  66; 6HR MAX TEMP:  72;

AUSTIN/MABRY   CLEAR     71  69  93 CALM      30.06R
6HR MIN TEMP:  71; 6HR MAX TEMP:  74;

*AUSTIN/EXEC   CLEAR     70  70 100 CALM      30.06R
*LAGO VISTA    CLEAR     72  69  91 SW6       30.08R
6HR MIN TEMP:  72; 6HR MAX TEMP:  73;

SAN MARCOS     CLEAR     70  66  88 CALM      30.05
NEW BRAUNFELS  CLEAR     71  70  96 CALM      30.04R
6HR MIN TEMP:  70; 6HR MAX TEMP:  73;

RANDOLPH AFB   PTCLDY    73  71  95 SW2       30.05R
6HR MIN TEMP:  72; 6HR MAX TEMP:  73;

PT SAN ANTONIO CLEAR     70  69  99 NW2       30.03R
6HR MIN TEMP:  69; 6HR MAX TEMP:  74;

SAN ANTONIO    PTCLDY    73  70  90 NW3       30.05R
6HR MIN TEMP:  72; 6HR MAX TEMP:  74;

STINSON FIELD  CLEAR     72  70  93 CALM      30.02R
6HR MIN TEMP:  70; 6HR MAX TEMP:  73;

*PLEASANTON    CLEAR     70  69  97 CALM      30.03S
6HR MIN TEMP:  69; 6HR MAX TEMP:  73;

*LA GRANGE     CLEAR     73  72  98 CALM      30.02R
6HR MIN TEMP:  72; 6HR MAX TEMP:  75;

*GIDDINGS      CLEAR     71  70  96 CALM      30.08R FOG
6HR MIN TEMP:  71; 6HR MAX TEMP:  73;

*GONZALES      PTCLDY    72  72 100 CALM      30.03R
6HR MIN TEMP:  71; 6HR MAX TEMP:  74;

$$

TXZ163>164-176>182-195>201-210>213-226-227-235-011300-
SOUTHEAST TEXAS

CITY           SKY/WX    TMP DP  RH WIND       PRES   REMARKS
COLLEGE STN    CLEAR     72  70  93 S3        30.04R
6HR MIN TEMP:  72; 6HR MAX TEMP:  73;

*BRYAN         CLEAR     71  71 100 S3        30.06R
6HR MIN TEMP:  70; 6HR MAX TEMP:  72;

*CALDWELL      CLEAR     70  70 100 CALM      30.07R
*CROCKETT      CLEAR     72  72 100 CALM      30.08R
*BRENHAM       CLEAR     73  72  99 CALM      30.05R
6HR MIN TEMP:  72; 6HR MAX TEMP:  76;

HUNTSVILLE     CLEAR     72  68  87 S3        30.05R
6HR MIN TEMP:  71; 6HR MAX TEMP:  73;

CONROE         PTCLDY    69  67  93 CALM      30.05S
6HR MIN TEMP:  67; 6HR MAX TEMP:  70;

HOUSTON BUSH   MOCLDY    74  73  97 VRB3      30.03S
6HR MIN TEMP:  71; 6HR MAX TEMP:  74;

HOUSTON HOBBY  PTCLDY    75  73  93 NE3       30.02S
6HR MIN TEMP:  73; 6HR MAX TEMP:  75; 6HR PCP: TRACE;

*HOUSTON SW AP PTCLDY    66  66  99 CALM      30.03R
6HR MIN TEMP:  66; 6HR MAX TEMP:  67;

PEARLAND       PTCLDY    76  73  91 SE3       30.04S
6HR MIN TEMP:  73; 6HR MAX TEMP:  76; 6HR PCP: TRACE;

HOUSTON HOOKS  PTCLDY    73  71  93 CALM      30.04R
6HR MIN TEMP:  71; 6HR MAX TEMP:  73;

ELLINGTON FLD  MOCLDY    75  73  94 CALM      30.04S
SUGAR LAND     PTCLDY    74  72  93 CALM      30.02S
6HR MIN TEMP:  71; 6HR MAX TEMP:  75;

*HOUSTON EXEC  PTCLDY    73  73 100 E3        30.04R
*CLEVELAND MUN NOT AVBL
*WHARTON       CLEAR     74  73  96 CALM      30.03S
6HR MIN TEMP:  72; 6HR MAX TEMP:  75;

*COLUMBUS      FAIR      72  72 100 CALM      30.02S
6HR MIN TEMP:  71; 6HR MAX TEMP:  73;

$$

TXZ214>216-236>238-011300-
THE UPPER TEXAS COAST

CITY           SKY/WX    TMP DP  RH WIND       PRES   REMARKS
*ORANGE        PTCLDY    71  71 100 CALM      30.05S
6HR MIN TEMP:  69; 6HR MAX TEMP:  73; 6HR PCP:  0.01;

PORT ARTHUR    PTCLDY    74  73  97 CALM      30.03S
6HR MIN TEMP:  69; 6HR MAX TEMP:  74;

GALVESTON      PTCLDY    81  78  91 S8        30.03S
6HR MIN TEMP:  80; 6HR MAX TEMP:  81;

ANGLETON       PTCLDY    77  75  93 CALM      30.02S
6HR MIN TEMP:  75; 6HR MAX TEMP:  79; 6HR PCP: TRACE;

*BAY CITY      CLEAR     78  77  98 CALM      30.02R
PALACIOS       PTCLDY    82  77  84 S6        30.01R HX  90
6HR MIN TEMP:  79; 6HR MAX TEMP:  82;

$$

TXZ229>234-239>247-011300-
TEXAS COASTAL BEND AND RIO GRANDE PLAINS

CITY           SKY/WX    TMP DP  RH WIND       PRES   REMARKS
VICTORIA       PTCLDY    75  75 100 E3        30.02R
6HR MIN TEMP:  74; 6HR MAX TEMP:  77;

*BEEVILLE      PTCLDY   N/A N/A N/A CALM      30.01R
ROCKPORT       PTCLDY    82  77  84 SE12      29.99R HX  90
6HR MIN TEMP:  82; 6HR MAX TEMP:  82;

*PORT ARANSAS  PTCLDY   N/A N/A N/A SE6       29.99R
                                      6HR PCP:  0.01;

*PORT LAVACA   CLEAR     77  75  94 SE5       30.01S
*INGLESIDE     PTCLDY    81  77  89 SE6       29.99S
CORPUS CHRISTI MOCLDY    77  75  93 S5        29.99R
6HR MIN TEMP:  75; 6HR MAX TEMP:  78; 6HR PCP:  0.01;

CORPUS NAS     MOCLDY    81  78  91 SE7       29.99R
6HR MIN TEMP:  78; 6HR MAX TEMP:  81; 6HR PCP: TRACE;

*ROBSTOWN      LGT RAIN  78  78 100 S7        30.00R
6HR MIN TEMP:  75; 6HR MAX TEMP:  78; 6HR PCP:  0.01;

ALICE          MOCLDY    76  73  91 CALM      30.00R
6HR MIN TEMP:  75; 6HR MAX TEMP:  77;

KINGSVILLE NAS MOCLDY    76  76 100 N3        29.99S
6HR MIN TEMP:  75; 6HR MAX TEMP:  77; 6HR PCP: TRACE;

COTULLA        CLEAR     73  71  93 E5        30.02R
6HR MIN TEMP:  73; 6HR MAX TEMP:  75;

*FAITH RANCH     N/A     72  72 100 E6        30.01S
LAREDO         CLOUDY    76  72  87 SE5       30.02R
6HR MIN TEMP:  74; 6HR MAX TEMP:  78;

$$

TXZ248>255-011300-
DEEP SOUTH TEXAS

CITY           SKY/WX    TMP DP  RH WIND       PRES   REMARKS
BROWNSVILLE    HVY RAIN  74  72  93 SE8G24    29.97R VSB 1
6HR MIN TEMP:  74; 6HR MAX TEMP:  80; 6HR PCP:  0.43;

PORT ISABEL    CLOUDY    80  77  90 E6        29.96S
6HR MIN TEMP:  79; 6HR MAX TEMP:  81;

*SOUTH PADRE   CLOUDY    79  77  94 SW9       29.97R VSB 1
HARLINGEN      CLOUDY    79  75  87 W5        29.97R FOG
6HR MIN TEMP:  77; 6HR MAX TEMP:  79;

*HEBBRONVILLE  LGT RAIN  73  72  95 CALM      30.02S
MCALLEN        CLOUDY    76  71  85 SE3       29.98S


USA.gov is the U.S. government's official web portal to all federal, state and local government web resources and services.